Location: Unspecified
(0.0000°N, 0.0000°E)
Time: 19:08:15
(UTC+00:00)

deb Delta 126 - Pass Details

Date: 17 February 2026
Orbit: 1458 x 1580 km, 101.9° (Epoch: 11 March)

Event Time Altitude Azimuth Distance (km) Brightness Sun altitude
Rises 02:35:35 0° 36° (NE) 4,752 ? -52.9°
Reaches altitude 10° 02:38:48 10° 45° (NE) 3,773 ? -52.1°
Enters shadow 02:42:23 24° 62° (ENE) 2,843 ? -51.3°
Exits shadow 02:45:27 34° 92° (E) 2,379 ? -50.6°
Maximum altitude 02:46:39 35° 107° (ESE) 2,334 ? -50.3°
Drops below altitude 10° 02:54:26 10° 169° (SSE) 3,759 ? -48.4°
Sets 02:57:36 0° 177° (S) 4,733 ? -47.7°
